User: anonymous   Login
Location: Newark
(33.4453°N, 112.0669°W)
Time: 19:20:21
(UTC+00:00)
Language:

A-11 Canister half - Orbit

View from above orbital plane
View from above orbital plane
View from above satellite
View from above satellite

Ground track
Ground track

The orbit data is extracted from the following two-line orbital elements,

1    53U 60009E   20052.51777978 -.00000080 +00000-0 +55666-4 0  9994
2    53 047.2741 259.5987 0100121 095.2578 265.9645 12.17240620654323
Epoch (UTC): 21 February 2020 12:25:36
Eccentricity: 0.0100121
inclination: 47.2741°
perigee height: 1524 km
apogee height: 1684 km
right ascension of ascending node: 259.5987°
argument of perigee: 95.2578°
revolutions per day: 12.17240620
mean anomaly at epoch: 265.9645°
orbit number at epoch: 65432

The dashed part of the orbit path shows where the satellite is in the earth's shadow,  

DLR